Weather Roundup
Issued by NWS Chicago, IL

Home | Current Version | Previous Version | Graphics & Text | Print | Product List | Glossary On
Versions: 1 2 3 4 5 6 7 8 9 10 11 12 13 14 15 16 17 18 19 20 21 22 23 24 25 26 27 28 29 30 31 32 33 34 35 36 37 38 39 40 41 42 43 44 45 46 47 48 49 50
732
NZUS59 KLOT 221508
HRRLOT

CHICAGO AREA WEATHER ROUNDUP
NATIONAL WEATHER SERVICE CHICAGO/ROMEOVILLE IL
900 AM CST SUN JAN 22 2017

NOTE: "FAIR" INDICATES FEW OR NO CLOUDS BELOW 12,000 FEET WITH NO
SIGNIFICANT WEATHER AND/OR OBSTRUCTIONS TO VISIBILITY.

* THESE STATIONS ARE NOT UNDER NWS QUALITY CONTROL. THEY ALSO MAY NOT
  REPORT WEATHER SUCH AS PRECIPITATION OR FOG.

ILZ005-006-012>014-019>023-221600-
NORTHEAST ILLINOIS

CITY           SKY/WX    TMP DP  RH WIND       PRES   REMARKS
OHARE          CLOUDY    41  38  89 N5        29.63R
MIDWAY         FOG       42  41  96 NE3       29.64R VSB 1
AURORA         FOG       33  32  96 NW6       29.64S VSB 1/4 WCI  28
LANSING*       FOG       40  40 100 NE5       29.64R VSB 1/2
JOLIET*        FOG       41  41 100 N5        29.64R VSB 1/2
WAUKEGAN       CLOUDY    42  40  92 NW3       29.63R FOG
DUPAGE AIRPORT CLOUDY    34  32  92 CALM      29.63S
WHEELING       CLOUDY    43  39  86 N3        29.64S
KANKAKEE*      FOG       38  37  98 N7        29.64R VSB 1/4
MORRIS*        FOG       35  35  99 CALM      29.63R VSB<1/4
LEWIS AIRPORT* CLOUDY    40  40 100 N7        29.64R FOG
NORTHERLY ISL    N/A     39  38  96 N5          N/A
$$

WIZ051-052-058>065-066-070>072-221600-
SOUTHEAST WISCONSIN

CITY           SKY/WX    TMP DP  RH WIND       PRES   REMARKS
MILWAUKEE      CLOUDY    42  39  89 NW3       29.64R FOG
KENOSHA*       CLOUDY    40  38  93 W5        29.64R FOG
RACINE*        CLOUDY    40  39  97 CALM      29.66R FOG
WAUKESHA       FOG       37  37 100 SW2       29.65R VSB 1
WEST BEND      CLOUDY    37  37 100 CALM      29.64R FOG
$$

INZ001>003-010>013-019-020-221600-
NORTHWEST INDIANA

CITY           SKY/WX    TMP DP  RH WIND       PRES   REMARKS
GARY*          FOG       41  41 100 CALM      29.64R VSB 1/4
MICHIGAN CITY* NOT AVBL
RENSSELAER*    NOT AVBL
VALPARAISO     FOG       39  39 100 N7        29.63R VSB<1/4
$$

LMZ740>746-221600-
SOUTHERN LAKE MICHIGAN

STATION/POSITION TIME  SKY/WX   TEMP WIND        PRES    VSBY
                                AIR  DIR/SP/G
                 (UTC)          (F)  (DEG/KT/KT) (MB)    (MI)
HARRISON CRIB    1440            39  340/  6/  6   N/A
BURNHAM HARBOR   1500            39   30/  4/  5   N/A
CALUMET HARBOR   1442            38   10/  3/  4 1003.2R
BURNS HARBOR     1440            36   80/  7/  9 1004.4R
MICHIGAN CITY    1440            36   40/  9/ 10   N/A
$$

ABBREVIATIONS USED IN REMARKS
   TC - TEMPERATURE IN CELSIUS
  WCI - WIND CHILL INDEX
   HX - HEAT INDEX
  VSB - VISIBILITY
$$




USA.gov is the U.S. government's official web portal to all federal, state and local government web resources and services.